This is the latest recevied weather packets stored in our database for station/object KD0RII. If no packets are shown the sender has not sent any weather packets the latest 10 day(s).
| Time | Temp. | Humidity | Pressure | Rain* | Wind** | Luminosity | Snow |
|---|---|---|---|---|---|---|---|
| 1777852840 | 26.11° C | 36% | 1008.9 hPa | 0 mm | - | 83 W/m² | - |
| 1777852539 | 26.11° C | 33% | 1008.9 hPa | 0 mm | - | 84 W/m² | - |
| 1777852235 | 26.11° C | 34% | 1009.2 hPa | 0 mm | - | 90 W/m² | - |
| 1777851933 | 26.67° C | 33% | 1009.2 hPa | 0 mm | - | 99 W/m² | - |
| 1777851631 | 26.67° C | 34% | 1009 hPa | 0 mm | - | 104 W/m² | - |
| 1777851327 | 27.22° C | 30% | 1009.3 hPa | 0 mm | - | 109 W/m² | - |
| 1777851023 | 27.22° C | 32% | 1009.2 hPa | 0 mm | - | 115 W/m² | - |
| 1777850720 | 27.22° C | 32% | 1009.4 hPa | 0 mm | - | 124 W/m² | - |
| 1777850418 | 27.78° C | 32% | 1009.4 hPa | 0 mm | - | 129 W/m² | - |
| 1777850116 | 27.78° C | 32% | 1009.4 hPa | 0 mm | - | 138 W/m² | - |
| 1777849813 | 27.78° C | 34% | 1009.5 hPa | 0 mm | - | 146 W/m² | - |
| 1777849509 | 27.78° C | 32% | 1009.4 hPa | 0 mm | - | 182 W/m² | - |
| 1777849206 | 27.78° C | 31% | 1009.6 hPa | 0 mm | - | 179 W/m² | - |
| 1777848903 | 28.33° C | 31% | 1009.7 hPa | 0 mm | - | 180 W/m² | - |
| 1777848598 | 28.33° C | 32% | 1009.6 hPa | 0 mm | - | 208 W/m² | - |
| 1777848295 | 28.33° C | 30% | 1009.5 hPa | 0 mm | - | 224 W/m² | - |
| 1777847993 | 28.33° C | 31% | 1009.5 hPa | 0 mm | - | 249 W/m² | - |
| 1777847691 | 28.33° C | 29% | 1009.5 hPa | 0 mm | - | 215 W/m² | - |
| 1777847386 | 28.33° C | 31% | 1009.7 hPa | 0 mm | - | 197 W/m² | - |
| 1777847085 | 27.78° C | 31% | 1009.6 hPa | 0 mm | - | 244 W/m² | - |
| 1777846783 | 27.78° C | 29% | 1009.9 hPa | 0 mm | - | 196 W/m² | - |
| 1777846480 | 28.33° C | 29% | 1009.9 hPa | 0 mm | - | 234 W/m² | - |
| 1777846177 | 28.89° C | 30% | 1010 hPa | 0 mm | - | 190 W/m² | - |
| 1777845873 | 28.89° C | 30% | 1010.2 hPa | 0 mm | - | 231 W/m² | - |
| 1777845571 | 29.44° C | 29% | 1010.3 hPa | 0 mm | - | 335 W/m² | - |
* Rain latest hour (hover to see other rain measurements)
** Current wind speed in m/s (hover to see current wind gust speed)